sat.trackr.live / text

‹ back to catalog

STARLINK-35782

NORAD 67182 · 2025-303V

PAYLOAD ACTIVE UNKNOWN

§ Identity

Operator
Country
US
Launch date
2025-12-17
Launch site
AFETR
Launch vehicle
Mass (kg)
RCS (m²)

Purposes: comms

External: N2YO · Heavens-Above · Gunter

§ Orbital elements

Epoch: 2026-09-19T09:25:46.599744Z

Period
94.27 min
Inclination
42.9991°
Eccentricity
0.0001880
Mean motion
15.27563313 rev/d
Perigee alt
481.8 km
Apogee alt
484.4 km
Semi-major
6,861.2 km
B*
6.0174e-4
RAAN
296.4230°
Arg perigee
272.2818°
Mean anomaly
87.7818°
Rev number
4,236

§ Raw data

STARLINK-357821 67182U 25303V   26262.39290046  .00016325  00000+0  60174-3 0  99952 67182  42.9991 296.4230 0001880 272.2818  87.7818 15.27563313 42363

JSON: /api/v1/satellites/67182 · /tle

For live sub-satellite position, see the globe view (requires WebGL).

§ Visibility from observer

Set your observer location to see the next 7 days of passes ≥ 10°. The values pass through the URL so the page stays shareable.

No JS? Fill the form by hand. The geolocation button needs JavaScript.